User: anonymous   Login
Location: Unspecified
(0.0000°N, 0.0000°E)
Time: 22:13:03
(UTC+00:00)
Language:

STARLINK-32422 - Orbit

View from above orbital plane
View from above orbital plane
View from above satellite
View from above satellite

Ground track
Ground track

The orbit is defined by the following mean orbital elements,

1 61592U          26145.12362300 +.00000000 +00000-0 -63047-4 0 00006
2 61592  53.1601  54.5358 0000963  92.3182 267.7929 15.30179245    03
Epoch (UTC): 25 May 2026 02:58:01
Eccentricity: 0.0000963
inclination: 53.1601°
perigee height: 475 km
apogee height: 476 km
right ascension of ascending node: 54.5358°
argument of perigee: 92.3182°
revolutions per day: 15.30179245
mean anomaly at epoch: 267.7929°

The dashed part of the orbit path shows where the satellite is in the earth's shadow,  

DLR